KL7GG Weather Reports


Display with metric or nautical units.
time (UTC)temp
F
wind
direction
speed
MPH
gust
MPH
rain 1hr
in
rain 24hr
in
rain mn
in
humidity
%
barometer
mb
20240518072449 44 296 1.0 8.0 0.00 0.00 0.00 69 1017.5
20240518070945 45 311 1.0 4.0 0.00 0.00 0.00 65 1017.3
20240518065441 46 307 1.0 10.0 0.00 0.00 0.00 62 1017.2
20240518063937 47 0 0.0 5.0 0.00 0.00 0.00 60 1017.2
20240518062433 47 31 1.0 7.0 0.00 0.00 0.00 57 1017.2
20240518060927 48 4 1.0 6.0 0.00 0.00 0.00 56 1017.1
20240518055423 49 360 2.0 5.0 0.00 0.00 0.00 54 1017.0
20240518052415 51 328 1.0 10.0 0.00 0.00 0.00 52 1016.9
20240518050909 52 318 1.0 6.0 0.00 0.00 0.00 49 1016.8
20240518045405 52 339 1.0 6.0 0.00 0.00 0.00 50 1016.6
20240518043859 52 0 0.0 7.0 0.00 0.00 0.00 49 1016.6
20240518042355 52 0 0.0 5.0 0.00 0.00 0.00 49 1016.6
20240518040851 52 0 0.0 8.0 0.00 0.00 0.00 50 1016.6
20240518033843 52 0 0.0 3.0 0.00 0.00 0.00 50 1016.6
20240518032339 52 305 3.0 6.0 0.00 0.00 0.00 48 1016.6
20240518030833 52 0 0.0 4.0 0.00 0.00 0.00 51 1016.5
20240518025329 52 0 0.0 3.0 0.00 0.00 0.00 50 1016.4
20240518023823 52 0 0.0 7.0 0.00 0.00 0.00 51 1016.5
20240518020813 53 0 0.0 3.0 0.00 0.00 0.00 50 1016.4
20240518015309 52 0 0.0 6.0 0.00 0.00 0.00 52 1016.4
20240518013803 52 319 3.0 6.0 0.00 0.00 0.00 53 1016.5
20240518012259 53 330 3.0 12.0 0.00 0.00 0.00 51 1016.5
20240518010755 53 0 0.0 7.0 0.00 0.00 0.00 52 1016.5
20240518005251 54 318 6.0 12.0 0.00 0.00 0.00 50 1016.4
20240518002241 53 309 5.0 15.0 0.00 0.00 0.00 50 1016.3
20240518000737 54 292 8.0 13.0 0.00 0.00 0.00 49 1016.3
20240517235233 53 314 3.0 11.0 0.00 0.00 0.00 51 1016.3
20240517233729 53 296 5.0 12.0 0.00 0.00 0.00 52 1016.4
20240517232225 52 316 3.0 12.0 0.00 0.00 0.00 55 1016.2
20240517230721 52 306 5.0 13.0 0.00 0.00 0.00 54 1016.2
20240517225217 51 321 5.0 12.0 0.00 0.00 0.00 52 1016.1
20240517223713 51 307 3.0 11.0 0.00 0.00 0.00 54 1016.1
20240517222209 51 288 2.0 10.0 0.00 0.00 0.00 54 1016.1
20240517220705 51 292 6.0 12.0 0.00 0.00 0.00 57 1016.1
20240517215159 51 274 3.0 16.0 0.00 0.00 0.00 56 1016.1
20240517213655 50 299 4.0 11.0 0.00 0.00 0.00 55 1016.1
20240517212151 49 332 3.0 6.0 0.00 0.00 0.00 56 1016.1
20240517210647 49 320 2.0 9.0 0.00 0.00 0.00 58 1016.0
20240517205141 49 289 6.0 12.0 0.00 0.00 0.00 58 1016.0
20240517203635 49 313 4.0 9.0 0.00 0.00 0.00 59 1015.8
20240517202129 48 0 0.0 9.0 0.00 0.00 0.00 62 1015.8
20240517195119 47 307 2.0 7.0 0.00 0.00 0.00 64 1015.9
20240517193615 47 290 4.0 8.0 0.00 0.00 0.00 65 1015.7
20240517190605 46 315 3.0 6.0 0.00 0.00 0.00 68 1015.7
20240517185101 45 0 0.0 5.0 0.00 0.00 0.00 67 1015.7
20240517183557 45 0 0.0 5.0 0.00 0.00 0.00 69 1015.8
20240517182053 45 307 2.0 5.0 0.00 0.00 0.00 68 1015.7
20240517180549 45 300 2.0 5.0 0.00 0.00 0.00 69 1015.7
20240517175045 45 297 2.0 5.0 0.00 0.00 0.00 70 1015.6
20240517173541 44 0 0.0 4.0 0.00 0.00 0.00 71 1015.6
20240517172037 44 0 0.0 3.0 0.00 0.00 0.00 75 1015.6
20240517170533 44 0 0.0 0.0 0.00 0.00 0.00 77 1015.5
20240517162019 42 0 0.0 0.0 0.00 0.00 0.00 86 1015.5
20240517160514 42 0 0.0 0.0 0.00 0.00 0.00 87 1015.5
20240517155010 41 0 0.0 0.0 0.00 0.00 0.00 87 1015.5
20240517153507 41 0 0.0 0.0 0.00 0.00 0.00 87 1015.2
20240517152001 41 0 0.0 0.0 0.00 0.00 0.00 87 1015.1
20240517150456 41 0 0.0 0.0 0.00 0.00 0.00 87 1015.1
20240517144952 41 0 0.0 0.0 0.00 0.00 0.00 86 1015.1
20240517143448 40 0 0.0 0.0 0.00 0.00 0.00 86 1015.0
20240517140438 40 0 0.0 0.0 0.00 0.00 0.00 86 1014.8
20240517133430 40 0 0.0 0.0 0.00 0.00 0.00 87 1014.6
20240517124916 40 0 0.0 0.0 0.00 0.00 0.00 87 1014.5
20240517123412 40 0 0.0 0.0 0.00 0.00 0.00 86 1014.4
20240517121908 41 0 0.0 0.0 0.00 0.00 0.00 86 1014.3
20240517114900 41 0 0.0 0.0 0.00 0.00 0.00 86 1014.1
20240517111852 41 0 0.0 0.0 0.00 0.00 0.00 85 1014.0
20240517094826 42 0 0.0 0.0 0.00 0.00 0.00 83 1014.0
20240517093322 42 0 0.0 0.0 0.00 0.00 0.00 81 1014.0
20240517083304 43 0 0.0 0.0 0.00 0.00 0.00 74 1013.7
20240517081800 43 0 0.0 0.0 0.00 0.00 0.00 74 1013.7
20240517074752 43 329 1.0 4.0 0.00 0.00 0.00 73 1013.5
20240517073248 43 0 0.0 0.0 0.00 0.00 0.00 73 1013.5